Time,TemperatureF,DewpointF,PressureIn,WindDirection,WindDirectionDegrees,WindSpeedMPH,WindSpeedGustMPH,Humidity,HourlyPrecipIn,Conditions,Clouds,dailyrainin,SoftwareType,DateUTC
2013-02-25 00:00:00,29.4,24.0,29.87,NNW,333,0.0,0.0,80,0.00,,,0.15,VWS V14.01,2013-02-25 05:00:00,
2013-02-25 00:01:00,29.4,24.0,29.87,North,356,0.0,0.0,80,0.00,,,0.00,VWS V14.01,2013-02-25 05:01:00,
2013-02-25 00:06:00,29.4,24.0,29.87,North,6,0.0,0.0,80,0.00,,,0.00,VWS V14.01,2013-02-25 05:06:00,
2013-02-25 00:11:00,29.4,24.0,29.87,NE,39,0.0,0.0,80,0.00,,,0.00,VWS V14.01,2013-02-25 05:11:00,
2013-02-25 00:16:00,29.4,24.0,29.88,North,351,0.0,0.0,80,0.00,,,0.00,VWS V14.01,2013-02-25 05:16:00,
2013-02-25 00:21:00,29.4,24.0,29.88,NNE,25,0.0,0.0,80,0.00,,,0.00,VWS V14.01,2013-02-25 05:21:00,
2013-02-25 00:26:00,29.4,24.0,29.88,ENE,63,0.0,0.0,80,0.00,,,0.00,VWS V14.01,2013-02-25 05:26:00,
2013-02-25 00:31:00,29.4,24.0,29.88,North,1,0.0,0.0,80,0.00,,,0.00,VWS V14.01,2013-02-25 05:31:00,
2013-02-25 00:36:00,29.4,24.0,29.88,NNE,23,0.0,0.0,80,0.00,,,0.00,VWS V14.01,2013-02-25 05:36:00,
2013-02-25 00:41:00,29.4,24.0,29.88,NE,40,0.0,0.0,80,0.00,,,0.00,VWS V14.01,2013-02-25 05:41:00,
2013-02-25 00:46:00,29.4,24.0,29.88,NE,44,0.0,0.0,80,0.00,,,0.00,VWS V14.01,2013-02-25 05:46:00,
2013-02-25 00:51:00,29.4,24.0,29.89,NNE,27,0.0,0.0,80,0.00,,,0.00,VWS V14.01,2013-02-25 05:51:00,
2013-02-25 00:56:00,29.4,24.0,29.89,NNE,29,0.0,0.0,80,0.00,,,0.00,VWS V14.01,2013-02-25 05:56:00,
2013-02-25 01:01:00,29.4,24.0,29.89,North,354,0.0,0.0,80,0.00,,,0.00,VWS V14.01,2013-02-25 06:01:00,
2013-02-25 01:06:00,29.4,24.0,29.89,North,349,0.0,0.0,80,0.00,,,0.00,VWS V14.01,2013-02-25 06:06:00,
2013-02-25 01:11:00,29.4,24.0,29.89,North,1,0.0,0.0,80,0.00,,,0.00,VWS V14.01,2013-02-25 06:11:00,
2013-02-25 01:16:00,29.3,23.9,29.89,North,4,0.0,0.0,80,0.00,,,0.00,VWS V14.01,2013-02-25 06:16:00,
2013-02-25 01:21:00,29.3,23.9,29.90,NNW,340,0.0,0.0,80,0.00,,,0.00,VWS V14.01,2013-02-25 06:21:00,
2013-02-25 01:26:00,29.2,23.8,29.90,NNW,335,0.0,0.0,80,0.00,,,0.00,VWS V14.01,2013-02-25 06:26:00,
2013-02-25 01:31:00,29.1,23.7,29.90,North,349,0.0,0.0,80,0.00,,,0.00,VWS V14.01,2013-02-25 06:31:00,
2013-02-25 01:36:00,29.0,23.6,29.90,NW,319,0.0,0.0,80,0.00,,,0.00,VWS V14.01,2013-02-25 06:36:00,
2013-02-25 01:41:00,29.0,23.6,29.90,NW,321,0.0,0.0,80,0.00,,,0.00,VWS V14.01,2013-02-25 06:41:00,
2013-02-25 01:46:00,28.9,23.5,29.90,NW,320,0.0,0.0,80,0.00,,,0.00,VWS V14.01,2013-02-25 06:46:00,
2013-02-25 01:51:00,28.8,23.4,29.90,NW,305,0.0,0.0,80,0.00,,,0.00,VWS V14.01,2013-02-25 06:51:00,
2013-02-25 01:56:00,28.8,23.4,29.90,NE,56,0.0,0.0,80,0.00,,,0.00,VWS V14.01,2013-02-25 06:56:00,
2013-02-25 02:01:00,28.8,23.4,29.91,NNW,346,0.0,0.0,80,0.00,,,0.00,VWS V14.01,2013-02-25 07:01:00,
2013-02-25 02:06:00,28.8,23.4,29.91,North,358,0.0,0.0,80,0.00,,,0.00,VWS V14.01,2013-02-25 07:06:00,
2013-02-25 02:11:00,28.8,23.4,29.91,NNW,336,0.0,0.0,80,0.00,,,0.00,VWS V14.01,2013-02-25 07:11:00,
2013-02-25 02:16:00,28.9,23.5,29.91,NNW,338,0.0,0.0,80,0.00,,,0.00,VWS V14.01,2013-02-25 07:16:00,
2013-02-25 02:21:00,29.0,23.6,29.91,NNW,344,0.0,0.0,80,0.00,,,0.00,VWS V14.01,2013-02-25 07:21:00,
2013-02-25 02:26:00,29.0,23.6,29.91,NNW,343,0.0,0.0,80,0.00,,,0.00,VWS V14.01,2013-02-25 07:26:00,
2013-02-25 02:31:00,29.1,23.7,29.91,NNW,343,0.0,0.0,80,0.00,,,0.00,VWS V14.01,2013-02-25 07:31:00,
2013-02-25 02:36:00,29.1,23.7,29.91,WNW,302,0.0,0.0,80,0.00,,,0.00,VWS V14.01,2013-02-25 07:36:00,
2013-02-25 02:41:00,29.2,23.8,29.92,NE,49,0.0,0.0,80,0.00,,,0.00,VWS V14.01,2013-02-25 07:41:00,
2013-02-25 02:46:00,29.2,23.8,29.92,NNW,337,0.0,0.0,80,0.00,,,0.00,VWS V14.01,2013-02-25 07:46:00,
2013-02-25 02:51:00,29.2,23.8,29.92,NE,44,0.0,0.0,80,0.00,,,0.00,VWS V14.01,2013-02-25 07:51:00,
2013-02-25 02:56:00,29.2,23.8,29.92,NE,46,0.0,0.0,80,0.00,,,0.00,VWS V14.01,2013-02-25 07:56:00,
2013-02-25 03:01:00,29.2,23.8,29.92,NNE,23,0.0,0.0,80,0.00,,,0.00,VWS V14.01,2013-02-25 08:01:00,
2013-02-25 03:06:00,29.2,23.8,29.92,NE,39,0.0,0.0,80,0.00,,,0.00,VWS V14.01,2013-02-25 08:06:00,
2013-02-25 03:11:00,29.2,24.1,29.92,NNE,20,0.0,0.0,81,0.00,,,0.00,VWS V14.01,2013-02-25 08:11:00,
2013-02-25 03:16:00,29.2,24.1,29.93,North,360,0.0,0.0,81,0.00,,,0.00,VWS V14.01,2013-02-25 08:16:00,
2013-02-25 03:21:00,29.1,24.0,29.93,NNW,347,0.0,0.0,81,0.00,,,0.00,VWS V14.01,2013-02-25 08:21:00,
2013-02-25 03:26:00,29.1,24.0,29.93,North,349,0.0,0.0,81,0.00,,,0.00,VWS V14.01,2013-02-25 08:26:00,
2013-02-25 03:31:00,29.1,24.0,29.93,North,351,0.0,0.0,81,0.00,,,0.00,VWS V14.01,2013-02-25 08:31:00,
2013-02-25 03:36:00,29.1,24.3,29.93,NNW,344,0.0,0.0,82,0.00,,OVC033,0.00,VWS V14.01,2013-02-25 08:36:00,
2013-02-25 03:41:00,29.0,24.2,29.93,NE,36,0.0,0.0,82,0.00,,OVC033,0.00,VWS V14.01,2013-02-25 08:41:00,
2013-02-25 03:46:00,28.9,24.1,29.93,North,359,0.0,0.0,82,0.00,,OVC033,0.00,VWS V14.01,2013-02-25 08:46:00,
2013-02-25 03:51:00,28.9,24.1,29.93,NNE,23,0.0,0.0,82,0.00,,OVC033,0.00,VWS V14.01,2013-02-25 08:51:00,
2013-02-25 03:56:00,28.8,24.3,29.94,North,359,0.0,0.0,83,0.00,,OVC033,0.00,VWS V14.01,2013-02-25 08:56:00,
2013-02-25 04:01:00,28.8,24.3,29.94,WNW,300,0.0,0.0,83,0.00,,OVC033,0.00,VWS V14.01,2013-02-25 09:01:00,
2013-02-25 04:06:00,28.8,24.3,29.94,North,1,0.0,0.0,83,0.00,,OVC033,0.00,VWS V14.01,2013-02-25 09:06:00,
2013-02-25 04:11:00,28.7,24.2,29.94,ENE,60,0.0,0.0,83,0.00,,OVC033,0.00,VWS V14.01,2013-02-25 09:11:00,
2013-02-25 04:16:00,28.7,24.2,29.94,NNE,15,0.0,0.0,83,0.00,,OVC033,0.00,VWS V14.01,2013-02-25 09:16:00,
2013-02-25 04:21:00,28.7,24.2,29.94,NE,43,0.0,0.0,83,0.00,,OVC033,0.00,VWS V14.01,2013-02-25 09:21:00,
2013-02-25 04:26:00,28.7,24.2,29.94,NE,49,0.0,0.0,83,0.00,,OVC033,0.00,VWS V14.01,2013-02-25 09:26:00,
2013-02-25 04:31:00,28.7,24.2,29.95,NNW,340,0.0,0.0,83,0.00,,OVC033,0.00,VWS V14.01,2013-02-25 09:31:00,
2013-02-25 04:36:00,28.6,24.1,29.95,WSW,248,0.0,0.0,83,0.00,,OVC032,0.00,VWS V14.01,2013-02-25 09:36:00,
2013-02-25 04:41:00,28.6,24.1,29.95,West,266,0.0,0.0,83,0.00,,OVC032,0.00,VWS V14.01,2013-02-25 09:41:00,
2013-02-25 04:46:00,28.7,24.5,29.96,West,277,0.0,0.0,84,0.00,,OVC032,0.00,VWS V14.01,2013-02-25 09:46:00,
2013-02-25 04:51:00,28.7,24.5,29.95,West,276,0.0,0.0,84,0.00,,OVC032,0.00,VWS V14.01,2013-02-25 09:51:00,
2013-02-25 04:56:00,28.8,24.6,29.96,West,264,0.0,0.0,84,0.00,,OVC032,0.00,VWS V14.01,2013-02-25 09:56:00,
2013-02-25 05:01:00,28.7,24.5,29.96,West,280,0.0,0.0,84,0.00,,OVC032,0.00,VWS V14.01,2013-02-25 10:01:00,
2013-02-25 05:06:00,28.6,24.4,29.97,West,274,0.0,0.0,84,0.00,,OVC032,0.00,VWS V14.01,2013-02-25 10:06:00,
2013-02-25 05:11:00,28.5,24.6,29.97,NW,318,0.0,0.0,85,0.00,,OVC032,0.00,VWS V14.01,2013-02-25 10:11:00,
2013-02-25 05:16:00,28.4,24.5,29.97,NW,319,0.0,0.0,85,0.00,,OVC032,0.00,VWS V14.01,2013-02-25 10:16:00,
2013-02-25 05:21:00,28.3,24.4,29.97,NNE,15,0.0,0.0,85,0.00,,OVC032,0.00,VWS V14.01,2013-02-25 10:21:00,
2013-02-25 05:26:00,28.2,24.0,29.97,ENE,64,0.0,0.0,84,0.00,,OVC032,0.00,VWS V14.01,2013-02-25 10:26:00,
2013-02-25 05:31:00,28.2,24.0,29.97,ENE,68,0.0,0.0,84,0.00,,OVC032,0.00,VWS V14.01,2013-02-25 10:31:00,
2013-02-25 05:36:00,28.2,24.0,29.98,ENE,68,0.0,0.0,84,0.00,,OVC050,0.00,VWS V14.01,2013-02-25 10:36:00,
2013-02-25 05:41:00,28.1,23.9,29.98,NE,49,0.0,0.0,84,0.00,,OVC050,0.00,VWS V14.01,2013-02-25 10:41:00,
2013-02-25 05:46:00,28.1,23.6,29.98,WNW,287,0.0,0.0,83,0.00,,OVC050,0.00,VWS V14.01,2013-02-25 10:46:00,
2013-02-25 05:51:00,28.0,23.8,29.99,WNW,287,0.0,0.0,84,0.00,,OVC050,0.00,VWS V14.01,2013-02-25 10:51:00,
2013-02-25 05:56:00,27.8,23.6,29.99,WNW,288,0.0,0.0,84,0.00,,OVC050,0.00,VWS V14.01,2013-02-25 10:56:00,
2013-02-25 06:01:00,27.6,23.4,29.99,WNW,288,0.0,0.0,84,0.00,,OVC050,0.00,VWS V14.01,2013-02-25 11:01:00,
2013-02-25 06:06:00,27.5,23.3,29.99,WNW,288,0.0,0.0,84,0.00,,OVC050,0.00,VWS V14.01,2013-02-25 11:06:00,
2013-02-25 06:11:00,27.3,23.1,29.99,WNW,288,0.0,0.0,84,0.00,,OVC050,0.00,VWS V14.01,2013-02-25 11:11:00,
2013-02-25 06:16:00,27.2,22.7,29.99,WNW,288,0.0,0.0,83,0.00,,OVC050,0.00,VWS V14.01,2013-02-25 11:16:00,
2013-02-25 06:21:00,27.2,22.7,29.99,WNW,288,0.0,0.0,83,0.00,,OVC050,0.00,VWS V14.01,2013-02-25 11:21:00,
2013-02-25 06:26:00,27.2,22.7,29.99,WNW,287,0.0,0.0,83,0.00,,OVC050,0.00,VWS V14.01,2013-02-25 11:26:00,
2013-02-25 06:31:00,27.1,22.6,29.99,WNW,287,0.0,0.0,83,0.00,,OVC050,0.00,VWS V14.01,2013-02-25 11:31:00,
2013-02-25 06:36:00,27.0,22.5,30.00,WNW,287,0.0,0.0,83,0.00,,BKN037,0.00,VWS V14.01,2013-02-25 11:36:00,
2013-02-25 06:41:00,26.9,22.4,30.00,WNW,287,0.0,0.0,83,0.00,,BKN037,0.00,VWS V14.01,2013-02-25 11:41:00,
2013-02-25 06:46:00,26.9,22.4,30.00,WNW,286,0.0,0.0,83,0.00,,BKN037,0.00,VWS V14.01,2013-02-25 11:46:00,
2013-02-25 06:51:00,26.9,22.4,30.01,WNW,286,0.0,0.0,83,0.00,,BKN037,0.00,VWS V14.01,2013-02-25 11:51:00,
2013-02-25 06:56:00,26.9,22.4,30.01,WNW,287,0.0,0.0,83,0.00,,BKN037,0.00,VWS V14.01,2013-02-25 11:56:00,
2013-02-25 07:01:00,27.3,22.5,30.01,WNW,287,0.0,0.0,82,0.00,,BKN037,0.00,VWS V14.01,2013-02-25 12:01:00,
2013-02-25 07:06:00,28.2,23.1,30.02,WNW,287,0.0,0.0,81,0.00,,BKN037,0.00,VWS V14.01,2013-02-25 12:06:00,
2013-02-25 07:11:00,29.4,24.0,30.02,WNW,287,0.0,0.0,80,0.00,,BKN037,0.00,VWS V14.01,2013-02-25 12:11:00,
2013-02-25 07:16:00,30.2,24.8,30.02,WNW,296,0.0,0.0,80,0.00,,BKN037,0.00,VWS V14.01,2013-02-25 12:16:00,
2013-02-25 07:21:00,30.0,24.9,30.02,WNW,297,0.0,0.0,81,0.00,,BKN037,0.00,VWS V14.01,2013-02-25 12:21:00,
2013-02-25 07:26:00,30.1,25.3,30.03,WNW,296,0.0,0.0,82,0.00,,BKN037,0.00,VWS V14.01,2013-02-25 12:26:00,
2013-02-25 07:31:00,30.2,25.4,30.03,WNW,296,0.0,0.0,82,0.00,,BKN037,0.00,VWS V14.01,2013-02-25 12:31:00,
2013-02-25 07:36:00,30.3,25.5,30.03,WNW,297,0.0,0.0,82,0.00,,BKN090,0.00,VWS V14.01,2013-02-25 12:36:00,
2013-02-25 07:41:00,30.5,26.0,30.03,WNW,297,0.0,0.0,83,0.00,,BKN090,0.00,VWS V14.01,2013-02-25 12:41:00,
2013-02-25 07:47:00,30.6,26.1,30.03,WNW,297,0.0,0.0,83,0.00,,BKN090,0.00,VWS V14.01,2013-02-25 12:47:00,
2013-02-25 07:52:00,30.4,26.1,30.03,WNW,297,0.0,0.0,84,0.00,,BKN090,0.00,VWS V14.01,2013-02-25 12:52:00,
2013-02-25 07:57:00,30.3,26.1,30.03,NE,49,0.0,0.0,84,0.00,,BKN090,0.00,VWS V14.01,2013-02-25 12:57:00,
2013-02-25 08:02:00,30.4,26.1,30.03,ENE,67,0.0,0.0,84,0.00,,BKN090,0.00,VWS V14.01,2013-02-25 13:02:00,
2013-02-25 08:07:00,30.6,26.1,30.03,ENE,67,0.0,0.0,83,0.00,,BKN090,0.00,VWS V14.01,2013-02-25 13:07:00,
2013-02-25 08:12:00,30.9,26.4,30.04,NE,54,0.0,0.0,83,0.00,,BKN090,0.00,VWS V14.01,2013-02-25 13:12:00,
2013-02-25 08:17:00,30.9,26.6,30.04,NNW,340,0.0,0.0,84,0.00,,BKN090,0.00,VWS V14.01,2013-02-25 13:17:00,
2013-02-25 08:22:00,31.1,26.8,30.04,NNW,340,0.0,0.0,84,0.00,,BKN090,0.00,VWS V14.01,2013-02-25 13:22:00,
2013-02-25 08:27:00,31.3,27.0,30.04,North,353,0.0,0.0,84,0.00,,BKN090,0.00,VWS V14.01,2013-02-25 13:27:00,
2013-02-25 08:32:00,31.5,27.5,30.04,NNW,340,0.0,0.0,85,0.00,,BKN090,0.00,VWS V14.01,2013-02-25 13:32:00,
2013-02-25 08:37:00,31.5,28.1,30.05,NNW,330,0.0,0.0,87,0.00,,BKN090,0.00,VWS V14.01,2013-02-25 13:37:00,
2013-02-25 08:42:00,31.8,28.1,30.05,NNE,26,0.0,0.0,86,0.00,,BKN090,0.00,VWS V14.01,2013-02-25 13:42:00,
2013-02-25 08:48:00,32.1,28.7,30.05,NNE,32,0.0,0.0,87,0.00,,BKN090,0.00,VWS V14.01,2013-02-25 13:48:00,
2013-02-25 08:53:00,32.2,28.8,30.05,NNE,23,0.0,0.0,87,0.00,,BKN090,0.00,VWS V14.01,2013-02-25 13:53:00,
2013-02-25 08:58:00,32.3,28.9,30.05,ENE,58,0.0,0.0,87,0.00,,BKN090,0.00,VWS V14.01,2013-02-25 13:58:00,
2013-02-25 09:03:00,32.5,29.1,30.05,North,6,0.0,0.0,87,0.00,,BKN090,0.00,VWS V14.01,2013-02-25 14:03:00,
2013-02-25 09:08:00,32.6,29.5,30.05,NW,309,0.0,0.0,88,0.00,,BKN090,0.00,VWS V14.01,2013-02-25 14:08:00,
2013-02-25 09:14:00,32.4,29.2,30.05,NE,43,0.0,0.0,88,0.00,,BKN090,0.00,VWS V14.01,2013-02-25 14:14:00,
2013-02-25 09:19:00,32.5,29.4,30.05,NE,36,0.0,0.0,88,0.00,,BKN090,0.00,VWS V14.01,2013-02-25 14:19:00,
2013-02-25 09:24:00,32.2,29.0,30.05,NNW,339,0.0,0.0,88,0.00,,BKN090,0.00,VWS V14.01,2013-02-25 14:24:00,
2013-02-25 09:29:00,32.1,29.0,30.06,NE,43,0.0,0.0,88,0.00,,BKN090,0.00,VWS V14.01,2013-02-25 14:29:00,
2013-02-25 09:34:00,31.9,28.8,30.06,ENE,70,0.0,0.0,88,0.00,,BKN090,0.00,VWS V14.01,2013-02-25 14:34:00,
2013-02-25 09:39:00,32.0,28.9,30.06,NE,49,0.0,0.0,88,0.00,,BKN100,0.00,VWS V14.01,2013-02-25 14:39:00,
2013-02-25 09:44:00,32.5,29.4,30.06,NE,49,0.0,0.0,88,0.00,,BKN100,0.00,VWS V14.01,2013-02-25 14:44:00,
2013-02-25 09:49:00,33.0,29.8,30.06,ENE,63,1.0,2.0,88,0.00,,BKN100,0.00,VWS V14.01,2013-02-25 14:49:00,
2013-02-25 09:54:00,32.9,29.5,30.07,NNE,20,1.0,1.0,87,0.00,,BKN100,0.00,VWS V14.01,2013-02-25 14:54:00,
2013-02-25 09:59:00,33.0,29.6,30.07,NNW,337,1.0,2.0,87,0.00,,BKN100,0.00,VWS V14.01,2013-02-25 14:59:00,
2013-02-25 10:04:00,33.0,29.3,30.07,NE,56,2.0,4.0,86,0.00,,BKN100,0.00,VWS V14.01,2013-02-25 15:04:00,
2013-02-25 10:09:00,33.4,29.7,30.07,North,355,2.0,4.0,86,0.00,,BKN100,0.00,VWS V14.01,2013-02-25 15:09:00,
2013-02-25 10:14:00,33.7,30.0,30.07,WNW,302,0.0,0.0,86,0.00,,BKN100,0.00,VWS V14.01,2013-02-25 15:14:00,
2013-02-25 10:19:00,34.3,30.3,30.08,NNW,345,1.0,1.0,85,0.00,,BKN100,0.00,VWS V14.01,2013-02-25 15:19:00,
2013-02-25 10:24:00,34.5,30.2,30.08,NE,40,1.0,1.0,84,0.00,,BKN100,0.00,VWS V14.01,2013-02-25 15:24:00,
2013-02-25 10:29:00,34.9,30.6,30.08,NE,37,1.0,2.0,84,0.00,,BKN100,0.00,VWS V14.01,2013-02-25 15:29:00,
2013-02-25 10:34:00,34.9,30.3,30.08,NNE,13,1.0,2.0,83,0.00,,BKN100,0.00,VWS V14.01,2013-02-25 15:34:00,
2013-02-25 10:39:00,35.1,30.2,30.08,ENE,60,1.0,2.0,82,0.00,,BKN100,0.00,VWS V14.01,2013-02-25 15:39:00,
2013-02-25 10:44:00,35.1,29.9,30.08,NE,50,3.0,4.0,81,0.00,,BKN100,0.00,VWS V14.01,2013-02-25 15:44:00,
2013-02-25 10:49:00,35.2,30.3,30.08,North,4,2.0,2.0,82,0.00,,BKN100,0.00,VWS V14.01,2013-02-25 15:49:00,
2013-02-25 10:54:00,35.7,30.1,30.09,West,262,1.0,2.0,80,0.00,,BKN100,0.00,VWS V14.01,2013-02-25 15:54:00,
2013-02-25 10:59:00,36.0,30.1,30.09,ENE,64,2.0,2.0,79,0.00,,BKN100,0.00,VWS V14.01,2013-02-25 15:59:00,
2013-02-25 11:04:00,35.8,30.2,30.08,NNE,32,4.0,4.0,80,0.00,,BKN100,0.00,VWS V14.01,2013-02-25 16:04:00,
2013-02-25 11:09:00,35.7,30.1,30.08,WNW,301,0.0,0.0,80,0.00,,BKN100,0.00,VWS V14.01,2013-02-25 16:09:00,
2013-02-25 11:14:00,36.9,31.3,30.08,ESE,114,0.0,0.0,80,0.01,,BKN100,0.01,VWS V14.01,2013-02-25 16:14:00,
2013-02-25 11:20:00,37.9,32.0,30.08,WNW,294,2.0,2.0,79,0.01,,BKN100,0.01,VWS V14.01,2013-02-25 16:20:00,
2013-02-25 11:25:00,37.7,30.8,30.08,NE,50,3.0,3.0,76,0.01,,BKN100,0.01,VWS V14.01,2013-02-25 16:25:00,
2013-02-25 11:30:00,36.8,30.6,30.08,ENE,67,3.0,3.0,78,0.02,,BKN100,0.02,VWS V14.01,2013-02-25 16:30:00,
2013-02-25 11:35:00,36.5,30.6,30.08,WNW,282,0.0,1.0,79,0.02,,BKN100,0.02,VWS V14.01,2013-02-25 16:35:00,
2013-02-25 11:40:00,37.0,30.8,30.08,NE,49,3.0,3.0,78,0.03,,BKN100,0.03,VWS V14.01,2013-02-25 16:40:00,
2013-02-25 11:45:00,37.1,30.9,30.08,NNW,340,1.0,3.0,78,0.03,,BKN100,0.03,VWS V14.01,2013-02-25 16:45:00,
2013-02-25 11:50:00,37.0,30.5,30.08,ENE,71,3.0,3.0,77,0.04,,BKN100,0.04,VWS V14.01,2013-02-25 16:50:00,
2013-02-25 11:55:00,36.8,30.3,30.08,NE,56,3.0,4.0,77,0.04,,BKN100,0.04,VWS V14.01,2013-02-25 16:55:00,
2013-02-25 12:00:00,37.0,30.8,30.08,East,94,2.0,2.0,78,0.05,,BKN100,0.05,VWS V14.01,2013-02-25 17:00:00,
2013-02-25 12:06:00,37.0,30.1,30.08,East,94,1.0,3.0,76,0.06,,BKN100,0.06,VWS V14.01,2013-02-25 17:06:00,
2013-02-25 12:11:00,37.2,30.7,30.08,ESE,110,2.0,3.0,77,0.06,,BKN100,0.06,VWS V14.01,2013-02-25 17:11:00,
2013-02-25 12:16:00,37.3,31.1,30.08,NNW,348,1.0,2.0,78,0.06,,BKN100,0.07,VWS V14.01,2013-02-25 17:16:00,
2013-02-25 12:21:00,37.5,31.0,30.08,ENE,77,2.0,4.0,77,0.07,,BKN100,0.08,VWS V14.01,2013-02-25 17:21:00,
2013-02-25 12:26:00,37.6,31.1,30.08,North,353,1.0,3.0,77,0.07,,BKN100,0.08,VWS V14.01,2013-02-25 17:26:00,
2013-02-25 12:31:00,37.8,30.6,30.07,NE,54,2.0,5.0,75,0.07,,BKN100,0.09,VWS V14.01,2013-02-25 17:31:00,
2013-02-25 12:36:00,37.9,31.0,30.07,NE,51,3.0,4.0,76,0.07,,BKN100,0.09,VWS V14.01,2013-02-25 17:36:00,
2013-02-25 12:41:00,38.1,31.2,30.08,ENE,77,1.0,1.0,76,0.07,,BKN100,0.10,VWS V14.01,2013-02-25 17:41:00,
2013-02-25 12:46:00,38.5,31.6,30.08,NE,54,1.0,2.0,76,0.07,,BKN100,0.10,VWS V14.01,2013-02-25 17:46:00,
2013-02-25 12:51:00,38.8,31.6,30.08,North,351,0.0,3.0,75,0.06,,BKN100,0.10,VWS V14.01,2013-02-25 17:51:00,
2013-02-25 12:56:00,39.3,31.7,30.08,NE,49,4.0,5.0,74,0.07,,BKN100,0.11,VWS V14.01,2013-02-25 17:56:00,
2013-02-25 13:01:00,39.3,32.4,30.08,West,278,2.0,3.0,76,0.06,,BKN100,0.11,VWS V14.01,2013-02-25 18:01:00,
2013-02-25 13:06:00,39.4,31.1,30.08,NW,323,4.0,4.0,72,0.06,,BKN100,0.12,VWS V14.01,2013-02-25 18:06:00,
2013-02-25 13:11:00,39.1,31.2,30.08,ENE,68,1.0,1.0,73,0.06,,BKN100,0.12,VWS V14.01,2013-02-25 18:11:00,
2013-02-25 13:16:00,39.1,31.2,30.08,ENE,59,2.0,3.0,73,0.05,,BKN100,0.12,VWS V14.01,2013-02-25 18:16:00,
2013-02-25 13:21:00,40.0,32.4,30.08,West,269,1.0,1.0,74,0.06,,BKN100,0.13,VWS V14.01,2013-02-25 18:21:00,
2013-02-25 13:26:00,40.6,32.0,30.08,NW,307,2.0,4.0,71,0.05,,BKN100,0.13,VWS V14.01,2013-02-25 18:26:00,
2013-02-25 13:31:00,40.2,31.9,30.08,NW,312,1.0,4.0,72,0.04,,SCT020,0.13,VWS V14.01,2013-02-25 18:31:00,
2013-02-25 13:36:00,40.3,31.7,30.08,ENE,65,1.0,2.0,71,0.04,,SCT020,0.13,VWS V14.01,2013-02-25 18:36:00,
2013-02-25 13:41:00,40.1,31.8,30.09,ENE,72,1.0,1.0,72,0.05,,SCT020,0.14,VWS V14.01,2013-02-25 18:41:00,
2013-02-25 13:46:00,40.2,31.9,30.09,ENE,75,1.0,2.0,72,0.04,,SCT020,0.14,VWS V14.01,2013-02-25 18:46:00,
2013-02-25 13:51:00,40.3,32.3,30.09,West,273,0.0,1.0,73,0.04,,SCT020,0.14,VWS V14.01,2013-02-25 18:51:00,
2013-02-25 13:56:00,40.2,31.6,30.10,NNE,27,2.0,2.0,71,0.03,,SCT020,0.14,VWS V14.01,2013-02-25 18:56:00,
2013-02-25 14:01:00,40.1,31.8,30.10,ENE,65,0.0,0.0,72,0.03,,SCT020,0.14,VWS V14.01,2013-02-25 19:01:00,
2013-02-25 14:06:00,40.1,31.8,30.10,WSW,256,1.0,3.0,72,0.03,,SCT020,0.14,VWS V14.01,2013-02-25 19:06:00,
2013-02-25 14:11:00,39.8,31.5,30.10,NE,46,1.0,2.0,72,0.02,,SCT020,0.14,VWS V14.01,2013-02-25 19:11:00,
2013-02-25 14:16:00,39.8,31.9,30.10,NW,306,1.0,2.0,73,0.03,,SCT020,0.15,VWS V14.01,2013-02-25 19:16:00,
2013-02-25 14:21:00,39.7,31.8,30.11,NNW,342,1.0,1.0,73,0.02,,SCT020,0.15,VWS V14.01,2013-02-25 19:21:00,
2013-02-25 14:26:00,39.5,31.9,30.11,West,259,2.0,2.0,74,0.02,,SCT020,0.15,VWS V14.01,2013-02-25 19:26:00,
2013-02-25 14:31:00,39.6,32.3,30.11,NW,311,0.0,0.0,75,0.02,,BKN030,0.15,VWS V14.01,2013-02-25 19:31:00,
2013-02-25 14:36:00,39.6,32.0,30.11,WSW,238,0.0,1.0,74,0.02,,BKN030,0.15,VWS V14.01,2013-02-25 19:36:00,
2013-02-25 14:41:00,39.6,32.0,30.11,SSE,166,1.0,2.0,74,0.01,,BKN030,0.15,VWS V14.01,2013-02-25 19:41:00,
2013-02-25 14:46:00,39.6,32.0,30.11,SSE,158,0.0,0.0,74,0.01,,BKN030,0.15,VWS V14.01,2013-02-25 19:46:00,
2013-02-25 14:51:00,39.6,32.0,30.11,ENE,71,1.0,2.0,74,0.01,,BKN030,0.15,VWS V14.01,2013-02-25 19:51:00,
2013-02-25 14:56:00,39.0,31.8,30.11,ENE,77,2.0,2.0,75,0.01,,BKN030,0.15,VWS V14.01,2013-02-25 19:56:00,
2013-02-25 15:01:00,38.7,31.8,30.11,ENE,74,1.0,3.0,76,0.01,,BKN030,0.15,VWS V14.01,2013-02-25 20:01:00,
2013-02-25 15:06:00,38.6,32.0,30.11,East,79,2.0,2.0,77,0.01,,BKN030,0.15,VWS V14.01,2013-02-25 20:06:00,
2013-02-25 15:11:00,38.6,32.0,30.11,East,81,1.0,1.0,77,0.01,,BKN030,0.15,VWS V14.01,2013-02-25 20:11:00,
2013-02-25 15:16:00,38.6,32.0,30.11,South,183,0.0,0.0,77,0.00,,BKN030,0.15,VWS V14.01,2013-02-25 20:16:00,
2013-02-25 15:21:00,39.2,32.6,30.12,SSW,203,0.0,0.0,77,0.00,,BKN030,0.15,VWS V14.01,2013-02-25 20:21:00,
2013-02-25 15:26:00,39.7,33.1,30.12,ESE,108,1.0,2.0,77,0.00,,BKN030,0.15,VWS V14.01,2013-02-25 20:26:00,
2013-02-25 15:31:00,39.6,33.3,30.12,West,259,0.0,0.0,78,0.00,,BKN100,0.15,VWS V14.01,2013-02-25 20:31:00,
2013-02-25 15:36:00,39.5,32.6,30.13,East,82,1.0,1.0,76,0.00,,BKN100,0.15,VWS V14.01,2013-02-25 20:36:00,
2013-02-25 15:41:00,39.4,32.8,30.13,NW,309,0.0,0.0,77,0.00,,BKN100,0.15,VWS V14.01,2013-02-25 20:41:00,
2013-02-25 15:46:00,39.2,32.6,30.13,ESE,117,0.0,0.0,77,0.00,,BKN100,0.15,VWS V14.01,2013-02-25 20:46:00,
2013-02-25 15:51:00,39.2,32.6,30.13,West,281,1.0,1.0,77,0.00,,BKN100,0.15,VWS V14.01,2013-02-25 20:51:00,
2013-02-25 15:56:00,39.2,32.6,30.13,West,262,0.0,0.0,77,0.00,,BKN100,0.15,VWS V14.01,2013-02-25 20:56:00,
2013-02-25 16:01:00,39.1,32.5,30.13,West,264,0.0,1.0,77,0.00,,BKN100,0.15,VWS V14.01,2013-02-25 21:01:00,
2013-02-25 16:06:00,38.9,32.3,30.13,NW,323,0.0,0.0,77,0.00,,BKN100,0.15,VWS V14.01,2013-02-25 21:06:00,
2013-02-25 16:11:00,38.9,32.6,30.13,NW,323,0.0,0.0,78,0.00,,BKN100,0.15,VWS V14.01,2013-02-25 21:11:00,
2013-02-25 16:16:00,38.7,32.4,30.13,West,260,0.0,0.0,78,0.00,,BKN100,0.15,VWS V14.01,2013-02-25 21:16:00,
2013-02-25 16:21:00,38.5,32.2,30.13,West,278,1.0,4.0,78,0.00,,BKN100,0.15,VWS V14.01,2013-02-25 21:21:00,
2013-02-25 16:26:00,38.4,32.5,30.13,WSW,256,0.0,0.0,79,0.00,,BKN100,0.15,VWS V14.01,2013-02-25 21:26:00,
2013-02-25 16:31:00,38.3,32.4,30.13,West,267,0.0,1.0,79,0.00,,BKN100,0.15,VWS V14.01,2013-02-25 21:31:00,
2013-02-25 16:36:00,38.1,32.2,30.13,WNW,303,0.0,0.0,79,0.00,,BKN030,0.15,VWS V14.01,2013-02-25 21:36:00,
2013-02-25 16:41:00,38.0,32.1,30.13,WNW,292,0.0,2.0,79,0.00,,BKN030,0.15,VWS V14.01,2013-02-25 21:41:00,
2013-02-25 16:46:00,37.8,32.2,30.13,WNW,293,0.0,0.0,80,0.00,,BKN030,0.15,VWS V14.01,2013-02-25 21:46:00,
2013-02-25 16:51:00,37.7,32.4,30.13,WNW,299,0.0,0.0,81,0.00,,BKN030,0.15,VWS V14.01,2013-02-25 21:51:00,
2013-02-25 16:56:00,37.7,32.4,30.14,WSW,257,0.0,1.0,81,0.00,,BKN030,0.15,VWS V14.01,2013-02-25 21:56:00,
2013-02-25 17:01:00,37.7,32.4,30.14,WSW,253,0.0,0.0,81,0.00,,BKN030,0.15,VWS V14.01,2013-02-25 22:01:00,
2013-02-25 17:06:00,37.6,32.3,30.14,WNW,290,0.0,1.0,81,0.00,,BKN030,0.15,VWS V14.01,2013-02-25 22:06:00,
2013-02-25 17:11:00,37.5,32.2,30.14,WNW,289,0.0,0.0,81,0.00,,BKN030,0.15,VWS V14.01,2013-02-25 22:11:00,
2013-02-25 17:16:00,37.4,32.1,30.14,WNW,289,0.0,0.0,81,0.00,,BKN030,0.15,VWS V14.01,2013-02-25 22:16:00,
2013-02-25 17:21:00,37.4,32.4,30.14,WSW,258,0.0,0.0,82,0.00,,BKN030,0.15,VWS V14.01,2013-02-25 22:21:00,
2013-02-25 17:26:00,37.4,32.4,30.14,WSW,253,0.0,0.0,82,0.00,,BKN030,0.15,VWS V14.01,2013-02-25 22:26:00,
2013-02-25 17:31:00,37.4,32.4,30.14,WSW,253,0.0,0.0,82,0.00,,OVC028,0.15,VWS V14.01,2013-02-25 22:31:00,
2013-02-25 17:36:00,37.3,32.3,30.14,WSW,253,0.0,0.0,82,0.00,,OVC028,0.15,VWS V14.01,2013-02-25 22:36:00,
2013-02-25 17:41:00,37.1,32.1,30.14,WSW,253,0.0,0.0,82,0.00,,OVC028,0.15,VWS V14.01,2013-02-25 22:41:00,
2013-02-25 17:47:00,36.8,31.8,30.14,WSW,253,0.0,0.0,82,0.00,,OVC028,0.15,VWS V14.01,2013-02-25 22:47:00,
2013-02-25 17:52:00,36.6,31.9,30.14,WSW,253,0.0,0.0,83,0.00,,OVC028,0.15,VWS V14.01,2013-02-25 22:52:00,
2013-02-25 17:57:00,36.3,31.6,30.14,WSW,253,0.0,0.0,83,0.00,,OVC028,0.15,VWS V14.01,2013-02-25 22:57:00,
2013-02-25 18:02:00,36.0,31.6,30.14,WSW,253,0.0,0.0,84,0.00,,OVC028,0.15,VWS V14.01,2013-02-25 23:02:00,
2013-02-25 18:07:00,35.7,31.4,30.14,WSW,253,0.0,0.0,84,0.00,,OVC028,0.15,VWS V14.01,2013-02-25 23:07:00,
2013-02-25 18:12:00,35.4,31.4,30.15,WSW,253,0.0,0.0,85,0.00,,OVC028,0.15,VWS V14.01,2013-02-25 23:12:00,
2013-02-25 18:17:00,35.1,31.3,30.15,WSW,253,0.0,0.0,86,0.00,,OVC028,0.15,VWS V14.01,2013-02-25 23:17:00,
2013-02-25 18:22:00,34.8,31.0,30.15,WSW,253,0.0,0.0,86,0.00,,OVC028,0.15,VWS V14.01,2013-02-25 23:22:00,
2013-02-25 18:27:00,34.5,31.0,30.15,WSW,252,0.0,0.0,87,0.00,,OVC028,0.15,VWS V14.01,2013-02-25 23:27:00,
2013-02-25 18:32:00,34.5,31.0,30.15,WSW,253,0.0,0.0,87,0.00,,BKN030,0.15,VWS V14.01,2013-02-25 23:32:00,
2013-02-25 18:37:00,34.4,30.9,30.15,WSW,253,0.0,0.0,87,0.00,,BKN030,0.15,VWS V14.01,2013-02-25 23:37:00,
2013-02-25 18:42:00,34.1,30.6,30.15,WSW,253,0.0,0.0,87,0.00,,BKN030,0.15,VWS V14.01,2013-02-25 23:42:00,
2013-02-25 18:47:00,33.9,30.5,30.15,WSW,253,0.0,0.0,87,0.00,,BKN030,0.15,VWS V14.01,2013-02-25 23:47:00,
2013-02-25 18:52:00,34.0,30.8,30.15,WSW,253,0.0,0.0,88,0.00,,BKN030,0.15,VWS V14.01,2013-02-25 23:52:00,
2013-02-25 18:57:00,34.0,30.8,30.15,WSW,253,0.0,0.0,88,0.00,,BKN030,0.15,VWS V14.01,2013-02-25 23:57:00,
2013-02-25 19:02:00,34.0,30.8,30.15,WSW,253,0.0,0.0,88,0.00,,BKN030,0.15,VWS V14.01,2013-02-26 00:02:00,
2013-02-25 19:07:00,33.7,30.5,30.16,WSW,253,0.0,0.0,88,0.00,,BKN030,0.15,VWS V14.01,2013-02-26 00:07:00,
2013-02-25 19:12:00,33.3,30.1,30.16,WSW,253,0.0,0.0,88,0.00,,FEW030,0.15,VWS V14.01,2013-02-26 00:12:00,
2013-02-25 19:17:00,33.1,29.9,30.17,WSW,253,0.0,0.0,88,0.00,,FEW030,0.15,VWS V14.01,2013-02-26 00:17:00,
2013-02-25 19:22:00,33.1,29.9,30.17,WSW,253,0.0,0.0,88,0.00,,FEW030,0.15,VWS V14.01,2013-02-26 00:22:00,
2013-02-25 19:27:00,32.8,29.6,30.17,WSW,253,0.0,0.0,88,0.00,,FEW030,0.15,VWS V14.01,2013-02-26 00:27:00,
2013-02-25 19:32:00,32.3,29.1,30.17,WSW,253,0.0,0.0,88,0.00,,FEW030,0.15,VWS V14.01,2013-02-26 00:32:00,
2013-02-25 19:37:00,32.1,28.7,30.17,WSW,253,0.0,0.0,87,0.00,,FEW030,0.15,VWS V14.01,2013-02-26 00:37:00,
2013-02-25 19:42:00,32.1,28.7,30.18,WSW,253,0.0,0.0,87,0.00,,FEW030,0.15,VWS V14.01,2013-02-26 00:42:00,
2013-02-25 19:47:00,32.1,28.4,30.18,WSW,253,0.0,0.0,86,0.00,,FEW030,0.15,VWS V14.01,2013-02-26 00:47:00,
2013-02-25 19:52:00,32.2,28.5,30.18,WSW,253,0.0,0.0,86,0.00,,FEW030,0.15,VWS V14.01,2013-02-26 00:52:00,
2013-02-25 19:57:00,32.1,28.4,30.18,WSW,253,0.0,0.0,86,0.00,,FEW030,0.15,VWS V14.01,2013-02-26 00:57:00,
2013-02-25 20:02:00,32.1,28.4,30.18,WSW,252,0.0,0.0,86,0.00,,FEW030,0.15,VWS V14.01,2013-02-26 01:02:00,
2013-02-25 20:07:00,32.0,28.3,30.18,WSW,253,0.0,0.0,86,0.00,,FEW030,0.15,VWS V14.01,2013-02-26 01:07:00,
2013-02-25 20:12:00,31.9,28.2,30.19,WSW,253,0.0,0.0,86,0.00,,FEW030,0.15,VWS V14.01,2013-02-26 01:12:00,
2013-02-25 20:17:00,31.8,28.1,30.19,WSW,253,0.0,0.0,86,0.00,,FEW030,0.15,VWS V14.01,2013-02-26 01:17:00,
2013-02-25 20:22:00,31.7,28.0,30.19,WSW,253,0.0,0.0,86,0.00,,FEW030,0.15,VWS V14.01,2013-02-26 01:22:00,
2013-02-25 20:27:00,31.4,27.7,30.19,WSW,252,0.0,0.0,86,0.00,,FEW030,0.15,VWS V14.01,2013-02-26 01:27:00,
2013-02-25 20:32:00,31.3,27.6,30.19,WSW,252,0.0,0.0,86,0.00,,FEW030,0.15,VWS V14.01,2013-02-26 01:32:00,
2013-02-25 20:37:00,31.2,27.5,30.19,WSW,253,0.0,0.0,86,0.00,,BKN060,0.15,VWS V14.01,2013-02-26 01:37:00,
2013-02-25 20:42:00,31.0,27.3,30.19,WSW,253,0.0,0.0,86,0.00,,BKN060,0.15,VWS V14.01,2013-02-26 01:42:00,
2013-02-25 20:47:00,31.1,27.1,30.19,WSW,253,0.0,0.0,85,0.00,,BKN060,0.15,VWS V14.01,2013-02-26 01:47:00,
2013-02-25 20:52:00,31.2,26.9,30.19,WSW,252,0.0,0.0,84,0.00,,BKN060,0.15,VWS V14.01,2013-02-26 01:52:00,
2013-02-25 20:57:00,31.3,27.0,30.19,WSW,253,0.0,0.0,84,0.00,,BKN060,0.15,VWS V14.01,2013-02-26 01:57:00,
2013-02-25 21:02:00,31.3,27.0,30.19,WSW,253,0.0,0.0,84,0.00,,BKN060,0.15,VWS V14.01,2013-02-26 02:02:00,
2013-02-25 21:07:00,31.2,26.9,30.19,WSW,254,0.0,0.0,84,0.00,,BKN060,0.15,VWS V14.01,2013-02-26 02:07:00,
2013-02-25 21:12:00,31.3,27.0,30.19,WSW,252,0.0,0.0,84,0.00,,BKN060,0.15,VWS V14.01,2013-02-26 02:12:00,
2013-02-25 21:17:00,31.2,26.9,30.19,WSW,253,0.0,0.0,84,0.00,,BKN060,0.15,VWS V14.01,2013-02-26 02:17:00,
2013-02-25 21:22:00,31.1,26.8,30.19,WSW,253,0.0,0.0,84,0.00,,BKN060,0.15,VWS V14.01,2013-02-26 02:22:00,
2013-02-25 21:27:00,31.0,26.7,30.19,WSW,253,0.0,0.0,84,0.00,,BKN060,0.15,VWS V14.01,2013-02-26 02:27:00,
2013-02-25 21:32:00,30.9,26.6,30.19,WSW,253,0.0,0.0,84,0.00,,BKN060,0.15,VWS V14.01,2013-02-26 02:32:00,
2013-02-25 21:37:00,31.0,26.5,30.19,WSW,252,0.0,0.0,83,0.00,,BKN060,0.15,VWS V14.01,2013-02-26 02:37:00,
2013-02-25 21:42:00,31.0,26.5,30.19,WSW,253,0.0,0.0,83,0.00,,BKN060,0.15,VWS V14.01,2013-02-26 02:42:00,
2013-02-25 21:47:00,31.0,26.5,30.19,WSW,252,0.0,0.0,83,0.00,,BKN060,0.15,VWS V14.01,2013-02-26 02:47:00,
2013-02-25 21:52:00,31.1,26.3,30.19,WSW,253,0.0,0.0,82,0.00,,BKN060,0.15,VWS V14.01,2013-02-26 02:52:00,
2013-02-25 21:57:00,31.2,26.4,30.19,WSW,253,0.0,0.0,82,0.00,,BKN060,0.15,VWS V14.01,2013-02-26 02:57:00,
2013-02-25 22:02:00,31.2,26.4,30.19,WSW,253,0.0,0.0,82,0.00,,BKN060,0.15,VWS V14.01,2013-02-26 03:02:00,
2013-02-25 22:07:00,31.2,26.4,30.19,WSW,253,0.0,0.0,82,0.00,,BKN060,0.15,VWS V14.01,2013-02-26 03:07:00,
2013-02-25 22:12:00,31.2,26.4,30.19,WSW,253,0.0,0.0,82,0.00,,BKN060,0.15,VWS V14.01,2013-02-26 03:12:00,
2013-02-25 22:17:00,31.2,26.1,30.19,WSW,253,0.0,0.0,81,0.00,,BKN060,0.15,VWS V14.01,2013-02-26 03:17:00,
2013-02-25 22:22:00,31.3,26.2,30.19,WSW,253,0.0,0.0,81,0.00,,BKN060,0.15,VWS V14.01,2013-02-26 03:22:00,
2013-02-25 22:27:00,31.2,26.1,30.19,WSW,253,0.0,0.0,81,0.00,,BKN060,0.15,VWS V14.01,2013-02-26 03:27:00,
2013-02-25 22:32:00,31.2,26.1,30.19,WSW,253,0.0,0.0,81,0.00,,BKN060,0.15,VWS V14.01,2013-02-26 03:32:00,
2013-02-25 22:37:00,31.0,26.2,30.19,WSW,253,0.0,0.0,82,0.00,,BKN060,0.15,VWS V14.01,2013-02-26 03:37:00,
2013-02-25 22:42:00,31.0,26.2,30.19,WSW,253,0.0,0.0,82,0.00,,BKN060,0.15,VWS V14.01,2013-02-26 03:42:00,
2013-02-25 22:48:00,31.0,25.9,30.19,WSW,253,0.0,0.0,81,0.00,,BKN060,0.15,VWS V14.01,2013-02-26 03:48:00,
2013-02-25 22:53:00,31.0,25.9,30.19,WSW,253,0.0,0.0,81,0.00,,BKN060,0.15,VWS V14.01,2013-02-26 03:53:00,
2013-02-25 22:58:00,30.9,26.1,30.19,WSW,252,0.0,0.0,82,0.00,,BKN060,0.15,VWS V14.01,2013-02-26 03:58:00,
2013-02-25 23:03:00,30.9,25.8,30.19,WSW,252,0.0,0.0,81,0.00,,BKN060,0.15,VWS V14.01,2013-02-26 04:03:00,
2013-02-25 23:08:00,30.9,25.8,30.19,WSW,252,0.0,0.0,81,0.00,,BKN060,0.15,VWS V14.01,2013-02-26 04:08:00,
2013-02-25 23:13:00,31.0,25.9,30.19,WSW,253,0.0,0.0,81,0.00,,BKN060,0.15,VWS V14.01,2013-02-26 04:13:00,
2013-02-25 23:18:00,31.0,25.9,30.19,WSW,253,0.0,0.0,81,0.00,,BKN060,0.15,VWS V14.01,2013-02-26 04:18:00,
2013-02-25 23:23:00,30.9,25.8,30.20,WSW,252,0.0,0.0,81,0.00,,BKN060,0.15,VWS V14.01,2013-02-26 04:23:00,
2013-02-25 23:29:00,30.9,25.8,30.20,WSW,252,0.0,0.0,81,0.00,,BKN060,0.15,VWS V14.01,2013-02-26 04:29:00,
2013-02-25 23:34:00,30.9,25.8,30.20,WSW,254,0.0,0.0,81,0.00,,BKN060,0.15,VWS V14.01,2013-02-26 04:34:00,
2013-02-25 23:39:00,31.0,25.9,30.21,WSW,252,0.0,0.0,81,0.00,,BKN060,0.15,VWS V14.01,2013-02-26 04:39:00,
2013-02-25 23:44:00,31.0,25.9,30.21,WSW,253,0.0,0.0,81,0.00,,BKN060,0.15,VWS V14.01,2013-02-26 04:44:00,
2013-02-25 23:49:00,31.0,25.9,30.21,WSW,253,0.0,0.0,81,0.00,,BKN060,0.15,VWS V14.01,2013-02-26 04:49:00,
2013-02-25 23:54:00,31.1,26.0,30.21,WSW,252,0.0,0.0,81,0.00,,BKN060,0.15,VWS V14.01,2013-02-26 04:54:00,
2013-02-25 23:59:00,31.1,26.0,30.21,WSW,252,0.0,0.0,81,0.00,,BKN060,0.15,VWS V14.01,2013-02-26 04:59:00,